Westerly, RI

8:42 PM EDT on May 26, 2017 (GMT -0400)
Westerly State

Weather History for KWST - July, 2013

Change the Weather History Date:

Wednesday, July 17, 2013

  Actual Average (KGON) Record (KGON)
Temperature  
Mean Temperature 78 °F -  
Max Temperature 84 °F 83 °F 93 °F (1977)
Min Temperature 71 °F 64 °F 53 °F (1962)
Cooling Degree Days 12    
Growing Degree Days 28 (Base 50)    
Moisture  
Dew Point 70 °F    
Average Humidity 78    
Maximum Humidity 97    
Minimum Humidity 53    
Precipitation  
Precipitation 0.00 in - - ()
Sea Level Pressure  
Sea Level Pressure 30.14 in    
Wind  
Wind Speed 3 mph (South)    
Max Wind Speed 9 mph    
Max Gust Speed -    
Visibility 8 miles    
Events      
Averages and records for this station are not official NWS values.
T = Trace of Precipitation, MM = Missing Value Source: NWS Daily Summary

Daily Weather History Graph

Daily Weather History Graph

Search for Another Location

Airport or City:

Trip Planner

Search our weather history database for the weather conditions in past years. The results will help you decide how hot, cold, wet, or windy it might be!

Date:

Astronomy

Jul. 17, 2013 Rise Set
Actual Time 5:28 AM EDT 8:17 PM EDT
Civil Twilight 4:56 AM EDT 8:50 PM EDT
Nautical Twilight 4:15 AM EDT 9:31 PM EDT
Astronomical Twilight 3:27 AM EDT 10:18 PM EDT
Moon 3:02 PM EDT (7/17) 12:35 AM EDT (7/17)
Length of Visible Light 15h 53m
Length of Day
14h 48m
Waxing Gibbous, 67% of the Moon is Illuminated
Jul 17
Waxing Gibbous
Jul 22
Full
Jul 29
Last Quarter
Aug 6
New
Aug 14
First Quarter

Hourly Weather History & Observations

Time (EDT) Temp. Heat Index Dew Point Humidity Pressure Visibility Wind Dir Wind Speed Gust Speed Precip Events Conditions
12:53 AM 73.0 °F - 71.1 °F 93% 30.16 in 7.0 mi Calm Calm - N/A   Clear
1:53 AM 72.0 °F - 71.1 °F 97% 30.15 in 6.0 mi NE 3.5 mph - N/A   Clear
2:53 AM 71.1 °F - 70.0 °F 96% 30.15 in 6.0 mi Calm Calm - N/A   Clear
3:53 AM 71.1 °F - 70.0 °F 96% 30.15 in 4.0 mi Calm Calm - N/A   Clear
4:53 AM 71.1 °F - 70.0 °F 96% 30.16 in 4.0 mi Calm Calm - N/A   Clear
5:53 AM 71.1 °F - 70.0 °F 96% 30.17 in 2.5 mi Calm Calm - N/A   Clear
6:08 AM 71.6 °F - 69.8 °F 94% 30.17 in 3.0 mi Calm Calm - N/A   Clear
6:53 AM 73.0 °F - 71.1 °F 93% 30.18 in 4.0 mi Calm Calm - N/A   Clear
7:53 AM 78.1 °F - 72.0 °F 81% 30.19 in 9.0 mi Calm Calm - N/A   Clear
8:53 AM 82.0 °F 86.7 °F 72.0 °F 71% 30.19 in 10.0 mi Calm Calm - N/A   Clear
9:53 AM 84.0 °F 88.4 °F 70.0 °F 63% 30.19 in 10.0 mi SE 6.9 mph - N/A   Clear
10:53 AM 82.9 °F 86.5 °F 69.1 °F 63% 30.19 in 10.0 mi SE 6.9 mph - N/A   Clear
11:53 AM 82.9 °F 87.0 °F 70.0 °F 65% 30.18 in 10.0 mi SSE 8.1 mph - N/A   Clear
12:53 PM 84.0 °F 85.8 °F 64.9 °F 53% 30.17 in 10.0 mi South 9.2 mph - N/A   Clear
1:53 PM 84.0 °F 86.5 °F 66.9 °F 56% 30.16 in 10.0 mi South 9.2 mph - N/A   Clear
2:53 PM 82.9 °F 86.5 °F 69.1 °F 63% 30.15 in 10.0 mi South 8.1 mph - N/A   Clear
3:53 PM 82.9 °F 87.5 °F 71.1 °F 67% 30.13 in 10.0 mi SSW 8.1 mph - N/A   Clear
4:53 PM 82.9 °F 85.8 °F 68.0 °F 60% 30.11 in 10.0 mi South 6.9 mph - N/A   Clear
5:53 PM 82.0 °F 84.5 °F 66.9 °F 60% 30.09 in 10.0 mi SSW 9.2 mph - N/A   Clear
6:53 PM 81.0 °F 83.8 °F 68.0 °F 65% 30.09 in 10.0 mi SSW 8.1 mph - N/A   Clear
7:53 PM 78.1 °F - 70.0 °F 76% 30.07 in 10.0 mi SSW 8.1 mph - N/A   Clear
8:53 PM 77.0 °F - 71.1 °F 82% 30.09 in 10.0 mi SW 3.5 mph - N/A   Clear
9:53 PM 75.0 °F - 71.1 °F 87% 30.09 in 10.0 mi WSW 3.5 mph - N/A   Clear
10:53 PM 75.0 °F - 71.1 °F 87% 30.08 in 9.0 mi Calm Calm - N/A   Clear
11:53 PM 75.0 °F - 73.0 °F 94% 30.07 in 8.0 mi Calm Calm - N/A   Clear